Location: Asheville, NC
(35.6000°N, 82.5500°W)
Time: 03:34:23
(UTC-04:00)

BEESAT 3 - Pass Details

Date: 10 March 2018
Orbit: 499 x 517 km, 64.9° (Epoch: 17 June)

Event Time Altitude Azimuth Distance (km) Brightness Sun altitude
Rises 06:18:21 0° 318° (NW) 2,629 ? -6.8°
Maximum altitude 06:24:05 28° 247° (WSW) 976 ? -5.7°
Drops below altitude 10° 06:27:24 10° 187° (S) 1,715 ? -5.0°
Sets 06:29:44 0° 176° (S) 2,591 ? -4.5°
